"Sample Date","Sample Time","Sample Value","Units","Flow Rate","Sample Interval","Number Channels","Micron Size 0","Counts/Channel 0","Micron Size 1","Counts/Channel 1","Micron Size 2","Counts/Channel 2","Micron Size 3","Counts/Channel 3","Micron Size 4","Counts/Channel 4","Micron Size 5","Counts/Channel 5","Micron Size 6","Counts/Channel 6","Micron Size 7","Counts/Channel 7","Micron Size 8","Counts/Channel 8","Micron Size 9","Counts/Channel 9","Micron Size 10","Counts/Channel 10","Micron Size 11","Counts/Channel 11","Micron Size 12","Counts/Channel 12","Micron Size 13","Counts/Channel 13","Micron Size 14","Counts/Channel 14","Micron Size 15","Counts/Channel 15","Micron Size 16","Counts/Channel 16","Micron Size 17","Counts/Channel 17","Micron Size 18","Counts/Channel 18","Micron Size 19","Counts/Channel 19","Micron Size 20","Counts/Channel 20","Micron Size 21","Counts/Channel 21","Micron Size 22","Counts/Channel 22","Micron Size 23","Counts/Channel 23","Micron Size 24","Counts/Channel 24","Micron Size 25","Counts/Channel 25","Micron Size 26","Counts/Channel 26","Micron Size 27","Counts/Channel 27","Micron Size 28","Counts/Channel 28","Micron Size 29","Counts/Channel 29","Micron Size 30","Counts/Channel 30","Micron Size 31","Counts/Channel 31"
"03/09/08","11:00:03",18113.000,"cc",28351.807,6.00,6,0.100,16702.000,0.200,1338.000,0.300,68.000,0.500,5.000,1.000,0,5.000,0
"03/09/08","11:00:09",17658.000,"cc",28226.010,6.00,6,0.100,16243.000,0.200,1340.000,0.300,73.000,0.500,1.000,1.000,1.000,5.000,0
"03/09/08","11:00:15",17755.000,"cc",28275.912,6.00,6,0.100,16398.000,0.200,1290.000,0.300,64.000,0.500,3.000,1.000,0,5.000,0
"03/09/08","11:00:21",17786.000,"cc",28384.908,6.00,6,0.100,16298.000,0.200,1392.000,0.300,90.000,0.500,5.000,1.000,1.000,5.000,0
"03/09/08","11:00:27",18096.000,"cc",28328.897,6.00,6,0.100,16649.000,0.200,1378.000,0.300,66.000,0.500,3.000,1.000,0,5.000,0
"03/09/08","11:00:33",18307.000,"cc",28294.518,6.00,6,0.100,16828.000,0.200,1389.000,0.300,86.000,0.500,4.000,1.000,0,5.000,0
"03/09/08","11:00:39",18229.000,"cc",28298.760,6.00,6,0.100,16688.000,0.200,1460.000,0.300,78.000,0.500,3.000,1.000,0,5.000,0
"03/09/08","11:00:45",18185.000,"cc",28361.902,6.00,6,0.100,16775.000,0.200,1320.000,0.300,84.000,0.500,6.000,1.000,0,5.000,0
"03/09/08","11:00:51",17853.000,"cc",28269.391,6.00,6,0.100,16441.000,0.200,1341.000,0.300,68.000,0.500,3.000,1.000,0,5.000,0
"03/09/08","11:00:57",17945.000,"cc",28335.098,6.00,6,0.100,16454.000,0.200,1395.000,0.300,89.000,0.500,7.000,1.000,0,5.000,0
"03/09/08","11:01:03",17755.000,"cc",28353.883,6.00,6,0.100,16405.000,0.200,1262.000,0.300,83.000,0.500,5.000,1.000,0,5.000,0
"03/09/08","11:01:09",18073.000,"cc",28241.914,6.00,6,0.100,16560.000,0.200,1437.000,0.300,72.000,0.500,3.000,1.000,1.000,5.000,0
"03/09/08","11:01:15",17977.000,"cc",28461.666,6.00,6,0.100,16632.000,0.200,1271.000,0.300,68.000,0.500,6.000,1.000,0,5.000,0
"03/09/08","11:01:21",17729.000,"cc",28240.494,6.00,6,0.100,16325.000,0.200,1321.000,0.300,79.000,0.500,4.000,1.000,0,5.000,0
"03/09/08","11:01:27",17768.000,"cc",28376.666,6.00,6,0.100,16418.000,0.200,1274.000,0.300,74.000,0.500,2.000,1.000,0,5.000,0
"03/09/08","11:01:33",17924.000,"cc",28298.563,6.00,6,0.100,16543.000,0.200,1310.000,0.300,70.000,0.500,1.000,1.000,0,5.000,0
"03/09/08","11:01:39",18043.000,"cc",28286.742,6.00,6,0.100,16664.000,0.200,1293.000,0.300,82.000,0.500,4.000,1.000,0,5.000,0
"03/09/08","11:01:45",18372.000,"cc",28260.406,6.00,6,0.100,16807.000,0.200,1463.000,0.300,92.000,0.500,9.000,1.000,1.000,5.000,0
"03/09/08","11:01:51",17513.000,"cc",28373.715,6.00,6,0.100,16177.000,0.200,1243.000,0.300,85.000,0.500,8.000,1.000,0,5.000,0
"03/09/08","11:01:57",17885.000,"cc",28466.928,6.00,6,0.100,16422.000,0.200,1385.000,0.300,74.000,0.500,3.000,1.000,1.000,5.000,0
"03/09/08","11:02:03",18002.000,"cc",28220.709,6.00,6,0.100,16611.000,0.200,1317.000,0.300,70.000,0.500,4.000,1.000,0,5.000,0
"03/09/08","11:02:09",18064.000,"cc",28266.283,6.00,6,0.100,16588.000,0.200,1390.000,0.300,83.000,0.500,3.000,1.000,0,5.000,0
"03/09/08","11:02:15",18095.000,"cc",28265.102,6.00,6,0.100,16623.000,0.200,1388.000,0.300,81.000,0.500,3.000,1.000,0,5.000,0
"03/09/08","11:02:21",17991.000,"cc",28406.748,6.00,6,0.100,16534.000,0.200,1372.000,0.300,79.000,0.500,5.000,1.000,1.000,5.000,0
"03/09/08","11:02:27",17802.000,"cc",28249.135,6.00,6,0.100,16439.000,0.200,1296.000,0.300,63.000,0.500,4.000,1.000,0,5.000,0
"03/09/08","11:02:33",18541.000,"cc",28349.529,6.00,6,0.100,17093.000,0.200,1379.000,0.300,65.000,0.500,3.000,1.000,1.000,5.000,0
"03/09/08","11:02:39",17539.000,"cc",28280.943,6.00,6,0.100,16331.000,0.200,1141.000,0.300,63.000,0.500,4.000,1.000,0,5.000,0
"03/09/08","11:02:45",18434.000,"cc",28299.369,6.00,6,0.100,16858.000,0.200,1487.000,0.300,84.000,0.500,5.000,1.000,0,5.000,0
"03/09/08","11:02:51",18055.000,"cc",28323.643,6.00,6,0.100,16628.000,0.200,1340.000,0.300,80.000,0.500,7.000,1.000,0,5.000,0
"03/09/08","11:02:57",17785.000,"cc",28305.074,6.00,6,0.100,16227.000,0.200,1449.000,0.300,103.000,0.500,6.000,1.000,0,5.000,0
"03/09/08","11:03:03",18412.000,"cc",28395.740,6.00,6,0.100,16955.000,0.200,1361.000,0.300,92.000,0.500,4.000,1.000,0,5.000,0
"03/09/08","11:03:09",18518.000,"cc",28310.592,6.00,6,0.100,16924.000,0.200,1503.000,0.300,84.000,0.500,6.000,1.000,1.000,5.000,0
"03/09/08","11:03:15",17934.000,"cc",28254.209,6.00,6,0.100,16454.000,0.200,1405.000,0.300,70.000,0.500,5.000,1.000,0,5.000,0
"03/09/08","11:03:21",18508.000,"cc",28294.109,6.00,6,0.100,16934.000,0.200,1467.000,0.300,100.000,0.500,6.000,1.000,1.000,5.000,0
"03/09/08","11:03:27",17951.000,"cc",28283.936,6.00,6,0.100,16595.000,0.200,1277.000,0.300,74.000,0.500,5.000,1.000,0,5.000,0
"03/09/08","11:03:33",18200.000,"cc",28377.506,6.00,6,0.100,16729.000,0.200,1367.000,0.300,99.000,0.500,4.000,1.000,1.000,5.000,0
"03/09/08","11:03:39",18017.000,"cc",28370.850,6.00,6,0.100,16685.000,0.200,1257.000,0.300,68.000,0.500,6.000,1.000,1.000,5.000,0
"03/09/08","11:03:45",17678.000,"cc",28234.701,6.00,6,0.100,16347.000,0.200,1251.000,0.300,75.000,0.500,5.000,1.000,0,5.000,0
"03/09/08","11:03:51",18017.000,"cc",28296.523,6.00,6,0.100,16684.000,0.200,1240.000,0.300,85.000,0.500,8.000,1.000,0,5.000,0
"03/09/08","11:03:57",18003.000,"cc",28369.859,6.00,6,0.100,16615.000,0.200,1290.000,0.300,91.000,0.500,7.000,1.000,0,5.000,0
"03/09/08","11:04:03",17974.000,"cc",28445.787,6.00,6,0.100,16617.000,0.200,1287.000,0.300,68.000,0.500,2.000,1.000,0,5.000,0
"03/09/08","11:04:09",18582.000,"cc",28264.023,6.00,6,0.100,17055.000,0.200,1437.000,0.300,86.000,0.500,4.000,1.000,0,5.000,0
"03/09/08","11:04:15",18326.000,"cc",28364.229,6.00,6,0.100,16754.000,0.200,1487.000,0.300,81.000,0.500,4.000,1.000,0,5.000,0
"03/09/08","11:04:21",18368.000,"cc",28337.397,6.00,6,0.100,16750.000,0.200,1530.000,0.300,83.000,0.500,5.000,1.000,0,5.000,0
"03/09/08","11:04:27",17871.000,"cc",28228.309,6.00,6,0.100,16540.000,0.200,1253.000,0.300,75.000,0.500,3.000,1.000,0,5.000,0
"03/09/08","11:04:33",18120.000,"cc",28376.801,6.00,6,0.100,16653.000,0.200,1388.000,0.300,78.000,0.500,1.000,1.000,0,5.000,0
"03/09/08","11:04:39",18086.000,"cc",28240.174,6.00,6,0.100,16585.000,0.200,1428.000,0.300,71.000,0.500,2.000,1.000,0,5.000,0
"03/09/08","11:04:45",17625.000,"cc",28384.451,6.00,6,0.100,16182.000,0.200,1336.000,0.300,103.000,0.500,4.000,1.000,0,5.000,0
"03/09/08","11:04:51",18007.000,"cc",28268.543,6.00,6,0.100,16562.000,0.200,1345.000,0.300,94.000,0.500,6.000,1.000,0,5.000,0
"03/09/08","11:04:57",18170.000,"cc",28398.397,6.00,6,0.100,16761.000,0.200,1326.000,0.300,79.000,0.500,4.000,1.000,0,5.000,0
"03/09/08","11:05:03",17836.000,"cc",28200.145,6.00,6,0.100,16338.000,0.200,1415.000,0.300,79.000,0.500,4.000,1.000,0,5.000,0
"03/09/08","11:05:09",18308.000,"cc",28339.119,6.00,6,0.100,16944.000,0.200,1280.000,0.300,81.000,0.500,3.000,1.000,0,5.000,0
"03/09/08","11:05:15",18145.000,"cc",28348.311,6.00,6,0.100,16650.000,0.200,1407.000,0.300,85.000,0.500,3.000,1.000,0,5.000,0
"03/09/08","11:05:21",18269.000,"cc",28310.906,6.00,6,0.100,16720.000,0.200,1452.000,0.300,90.000,0.500,7.000,1.000,0,5.000,0
"03/09/08","11:05:27",18348.000,"cc",28344.039,6.00,6,0.100,16757.000,0.200,1484.000,0.300,100.000,0.500,7.000,1.000,0,5.000,0
"03/09/08","11:05:33",18460.000,"cc",28264.184,6.00,6,0.100,16939.000,0.200,1441.000,0.300,78.000,0.500,2.000,1.000,0,5.000,0
"03/09/08","11:05:39",18207.000,"cc",28291.293,6.00,6,0.100,16592.000,0.200,1511.000,0.300,98.000,0.500,6.000,1.000,0,5.000,0
"03/09/08","11:05:45",17946.000,"cc",28339.750,6.00,6,0.100,16588.000,0.200,1281.000,0.300,74.000,0.500,3.000,1.000,0,5.000,0
"03/09/08","11:05:51",18455.000,"cc",28302.938,6.00,6,0.100,16949.000,0.200,1416.000,0.300,81.000,0.500,8.000,1.000,1.000,5.000,0
"03/09/08","11:05:57",18562.000,"cc",28329.861,6.00,6,0.100,16964.000,0.200,1489.000,0.300,102.000,0.500,6.000,1.000,1.000,5.000,0
"03/09/08","11:06:03",18477.000,"cc",28325.898,6.00,6,0.100,16856.000,0.200,1504.000,0.300,109.000,0.500,8.000,1.000,0,5.000,0
"03/09/08","11:06:09",18063.000,"cc",28351.440,6.00,6,0.100,16648.000,0.200,1326.000,0.300,83.000,0.500,5.000,1.000,1.000,5.000,0
"03/09/08","11:06:15",18338.000,"cc",28365.010,6.00,6,0.100,16773.000,0.200,1469.000,0.300,88.000,0.500,8.000,1.000,0,5.000,0
"03/09/08","11:06:21",17923.000,"cc",28337.242,6.00,6,0.100,16494.000,0.200,1351.000,0.300,71.000,0.500,7.000,1.000,0,5.000,0
"03/09/08","11:06:27",18258.000,"cc",28274.199,6.00,6,0.100,16774.000,0.200,1408.000,0.300,68.000,0.500,8.000,1.000,0,5.000,0
"03/09/08","11:06:33",18197.000,"cc",28256.815,6.00,6,0.100,16685.000,0.200,1422.000,0.300,88.000,0.500,2.000,1.000,0,5.000,0
"03/09/08","11:06:39",18072.000,"cc",28349.850,6.00,6,0.100,16591.000,0.200,1407.000,0.300,68.000,0.500,6.000,1.000,0,5.000,0
"03/09/08","11:06:45",18101.000,"cc",28314.061,6.00,6,0.100,16574.000,0.200,1447.000,0.300,75.000,0.500,5.000,1.000,0,5.000,0
"03/09/08","11:06:51",18293.000,"cc",28267.012,6.00,6,0.100,16799.000,0.200,1421.000,0.300,66.000,0.500,6.000,1.000,1.000,5.000,0
"03/09/08","11:06:57",18158.000,"cc",28360.215,6.00,6,0.100,16713.000,0.200,1355.000,0.300,83.000,0.500,7.000,1.000,0,5.000,0
"03/09/08","11:07:03",18413.000,"cc",28320.063,6.00,6,0.100,16933.000,0.200,1370.000,0.300,104.000,0.500,6.000,1.000,0,5.000,0
"03/09/08","11:07:09",17668.000,"cc",28322.803,6.00,6,0.100,16243.000,0.200,1336.000,0.300,81.000,0.500,8.000,1.000,0,5.000,0
"03/09/08","11:07:15",18161.000,"cc",28258.074,6.00,6,0.100,16594.000,0.200,1479.000,0.300,82.000,0.500,6.000,1.000,0,5.000,0
"03/09/08","11:07:21",18318.000,"cc",28481.693,6.00,6,0.100,16778.000,0.200,1450.000,0.300,89.000,0.500,1.000,1.000,0,5.000,0
"03/09/08","11:07:27",17984.000,"cc",28335.887,6.00,6,0.100,16475.000,0.200,1426.000,0.300,77.000,0.500,6.000,1.000,0,5.000,0
"03/09/08","11:07:33",18370.000,"cc",28300.342,6.00,6,0.100,16818.000,0.200,1461.000,0.300,90.000,0.500,1.000,1.000,0,5.000,0
"03/09/08","11:07:39",17851.000,"cc",28307.926,6.00,6,0.100,16518.000,0.200,1261.000,0.300,68.000,0.500,4.000,1.000,0,5.000,0
"03/09/08","11:07:45",18083.000,"cc",28261.520,6.00,6,0.100,16609.000,0.200,1378.000,0.300,87.000,0.500,8.000,1.000,1.000,5.000,0
"03/09/08","11:07:51",18334.000,"cc",28314.957,6.00,6,0.100,16856.000,0.200,1371.000,0.300,98.000,0.500,8.000,1.000,1.000,5.000,0
"03/09/08","11:07:57",18315.000,"cc",28345.277,6.00,6,0.100,16687.000,0.200,1557.000,0.300,66.000,0.500,5.000,1.000,0,5.000,0
"03/09/08","11:08:03",17665.000,"cc",28346.836,6.00,6,0.100,16263.000,0.200,1324.000,0.300,74.000,0.500,4.000,1.000,0,5.000,0
"03/09/08","11:08:09",17931.000,"cc",28195.662,6.00,6,0.100,16548.000,0.200,1304.000,0.300,72.000,0.500,7.000,1.000,0,5.000,0
"03/09/08","11:08:15",18506.000,"cc",28378.656,6.00,6,0.100,16988.000,0.200,1415.000,0.300,99.000,0.500,4.000,1.000,0,5.000,0
"03/09/08","11:08:21",18203.000,"cc",28347.020,6.00,6,0.100,16675.000,0.200,1453.000,0.300,71.000,0.500,4.000,1.000,0,5.000,0
"03/09/08","11:08:27",18308.000,"cc",28300.436,6.00,6,0.100,16785.000,0.200,1455.000,0.300,66.000,0.500,2.000,1.000,0,5.000,0
"03/09/08","11:08:33",18199.000,"cc",28348.242,6.00,6,0.100,16619.000,0.200,1500.000,0.300,75.000,0.500,5.000,1.000,0,5.000,0
"03/09/08","11:08:39",18304.000,"cc",28291.561,6.00,6,0.100,16811.000,0.200,1401.000,0.300,85.000,0.500,6.000,1.000,1.000,5.000,0
"03/09/08","11:08:45",18595.000,"cc",28251.129,6.00,6,0.100,16989.000,0.200,1498.000,0.300,102.000,0.500,6.000,1.000,0,5.000,0
"03/09/08","11:08:51",18447.000,"cc",28367.098,6.00,6,0.100,16953.000,0.200,1417.000,0.300,71.000,0.500,6.000,1.000,0,5.000,0
"03/09/08","11:08:57",18197.000,"cc",28278.676,6.00,6,0.100,16714.000,0.200,1390.000,0.300,88.000,0.500,5.000,1.000,0,5.000,0
"03/09/08","11:09:03",18264.000,"cc",28376.430,6.00,6,0.100,16728.000,0.200,1468.000,0.300,61.000,0.500,6.000,1.000,1.000,5.000,0
"03/09/08","11:09:09",18602.000,"cc",28241.631,6.00,6,0.100,17026.000,0.200,1489.000,0.300,84.000,0.500,3.000,1.000,0,5.000,0
"03/09/08","11:09:15",18312.000,"cc",28310.494,6.00,6,0.100,16874.000,0.200,1358.000,0.300,74.000,0.500,6.000,1.000,0,5.000,0
"03/09/08","11:09:21",18273.000,"cc",28419.881,6.00,6,0.100,16812.000,0.200,1377.000,0.300,81.000,0.500,3.000,1.000,0,5.000,0
"03/09/08","11:09:27",18348.000,"cc",28409.072,6.00,6,0.100,16751.000,0.200,1493.000,0.300,96.000,0.500,7.000,1.000,1.000,5.000,0
"03/09/08","11:09:33",18307.000,"cc",28325.232,6.00,6,0.100,16812.000,0.200,1425.000,0.300,69.000,0.500,1.000,1.000,0,5.000,0
"03/09/08","11:09:39",18089.000,"cc",28358.484,6.00,6,0.100,16604.000,0.200,1385.000,0.300,98.000,0.500,2.000,1.000,0,5.000,0
"03/09/08","11:09:45",18335.000,"cc",28220.371,6.00,6,0.100,16741.000,0.200,1502.000,0.300,91.000,0.500,1.000,1.000,0,5.000,0
"03/09/08","11:09:51",18401.000,"cc",28308.406,6.00,6,0.100,16839.000,0.200,1470.000,0.300,88.000,0.500,4.000,1.000,0,5.000,0
"03/09/08","11:09:57",18106.000,"cc",28283.172,6.00,6,0.100,16687.000,0.200,1341.000,0.300,75.000,0.500,3.000,1.000,0,5.000,0
"03/09/08","11:10:03",18262.000,"cc",28239.467,6.00,6,0.100,16669.000,0.200,1474.000,0.300,112.000,0.500,7.000,1.000,0,5.000,0
"03/09/08","11:10:09",18145.000,"cc",28202.418,6.00,6,0.100,16637.000,0.200,1403.000,0.300,96.000,0.500,9.000,1.000,0,5.000,0
"03/09/08","11:10:15",17959.000,"cc",28282.955,6.00,6,0.100,16444.000,0.200,1412.000,0.300,90.000,0.500,12.000,1.000,1.000,5.000,0
"03/09/08","11:10:21",18249.000,"cc",28435.387,6.00,6,0.100,16722.000,0.200,1441.000,0.300,78.000,0.500,8.000,1.000,0,5.000,0
"03/09/08","11:10:27",17881.000,"cc",28413.857,6.00,6,0.100,16385.000,0.200,1395.000,0.300,95.000,0.500,6.000,1.000,0,5.000,0
"03/09/08","11:10:33",18296.000,"cc",28483.920,6.00,6,0.100,16810.000,0.200,1371.000,0.300,109.000,0.500,6.000,1.000,0,5.000,0
"03/09/08","11:10:39",17993.000,"cc",28414.822,6.00,6,0.100,16481.000,0.200,1415.000,0.300,88.000,0.500,8.000,1.000,1.000,5.000,0
"03/09/08","11:10:45",18829.000,"cc",28414.936,6.00,6,0.100,17034.000,0.200,1626.000,0.300,148.000,0.500,20.000,1.000,1.000,5.000,0
"03/09/08","11:10:51",18739.000,"cc",28480.770,6.00,6,0.100,16992.000,0.200,1611.000,0.300,118.000,0.500,18.000,1.000,0,5.000,0
"03/09/08","11:10:57",18599.000,"cc",28315.551,6.00,6,0.100,16967.000,0.200,1519.000,0.300,109.000,0.500,4.000,1.000,0,5.000,0
"03/09/08","11:11:03",18674.000,"cc",28212.891,6.00,6,0.100,16993.000,0.200,1554.000,0.300,117.000,0.500,10.000,1.000,0,5.000,0
"03/09/08","11:11:09",18907.000,"cc",28184.584,6.00,6,0.100,17229.000,0.200,1552.000,0.300,122.000,0.500,4.000,1.000,0,5.000,0
"03/09/08","11:11:15",19103.000,"cc",28213.520,6.00,6,0.100,17316.000,0.200,1594.000,0.300,172.000,0.500,18.000,1.000,3.000,5.000,0
"03/09/08","11:11:21",19509.000,"cc",28203.717,6.00,6,0.100,17532.000,0.200,1806.000,0.300,157.000,0.500,14.000,1.000,0,5.000,0
"03/09/08","11:11:27",19657.000,"cc",28246.736,6.00,6,0.100,17684.000,0.200,1765.000,0.300,171.000,0.500,33.000,1.000,4.000,5.000,0
"03/09/08","11:11:33",20126.000,"cc",28094.717,6.00,6,0.100,17938.000,0.200,1903.000,0.300,240.000,0.500,42.000,1.000,3.000,5.000,0
"03/09/08","11:11:39",21532.000,"cc",28314.676,6.00,6,0.100,18815.000,0.200,2294.000,0.300,335.000,0.500,81.000,1.000,7.000,5.000,0
"03/09/08","11:11:45",20404.000,"cc",28273.617,6.00,6,0.100,18066.000,0.200,2022.000,0.300,257.000,0.500,55.000,1.000,4.000,5.000,0
"03/09/08","11:11:51",21785.000,"cc",28354.676,6.00,6,0.100,18943.000,0.200,2259.000,0.300,459.000,0.500,115.000,1.000,9.000,5.000,0
"03/09/08","11:11:57",20927.000,"cc",28238.885,6.00,6,0.100,18338.000,0.200,2186.000,0.300,329.000,0.500,69.000,1.000,5.000,5.000,0
"03/09/08","11:12:03",19816.000,"cc",28319.617,6.00,6,0.100,17664.000,0.200,1901.000,0.300,213.000,0.500,38.000,1.000,0,5.000,0
"03/09/08","11:12:09",20249.000,"cc",28335.947,6.00,6,0.100,17985.000,0.200,1907.000,0.300,288.000,0.500,67.000,1.000,2.000,5.000,0
"03/09/08","11:12:15",20989.000,"cc",28312.055,6.00,6,0.100,18616.000,0.200,2035.000,0.300,272.000,0.500,60.000,1.000,6.000,5.000,0
"03/09/08","11:12:21",33542.000,"cc",28287.904,6.00,6,0.100,29107.000,0.200,3910.000,0.300,440.000,0.500,80.000,1.000,5.000,5.000,0
"03/09/08","11:12:27",25306.000,"cc",28379.217,6.00,6,0.100,22361.000,0.200,2620.000,0.300,286.000,0.500,35.000,1.000,4.000,5.000,0
"03/09/08","11:12:33",31567.000,"cc",28364.354,6.00,6,0.100,27599.000,0.200,3501.000,0.300,413.000,0.500,51.000,1.000,3.000,5.000,0
"03/09/08","11:12:39",73116.000,"cc",28281.932,6.00,6,0.100,62092.000,0.200,9987.000,0.300,973.000,0.500,59.000,1.000,5.000,5.000,0
"03/09/08","11:12:45",102812.000,"cc",28272.047,6.00,6,0.100,86897.000,0.200,14484.000,0.300,1362.000,0.500,67.000,1.000,2.000,5.000,0
"03/09/08","11:12:51",125569.000,"cc",28327.799,6.00,6,0.100,105826.000,0.200,17907.000,0.300,1737.000,0.500,92.000,1.000,7.000,5.000,0
"03/09/08","11:12:57",113148.000,"cc",28285.252,6.00,6,0.100,94999.000,0.200,16276.000,0.300,1668.000,0.500,184.000,1.000,21.000,5.000,0
"03/09/08","11:13:03",160127.000,"cc",28330.359,6.00,6,0.100,132551.000,0.200,24768.000,0.300,2517.000,0.500,251.000,1.000,40.000,5.000,0
"03/09/08","11:13:09",180418.000,"cc",28335.908,6.00,6,0.100,149464.000,0.200,27894.000,0.300,2819.000,0.500,213.000,1.000,28.000,5.000,0
"03/09/08","11:13:15",151966.000,"cc",28292.256,6.00,6,0.100,126246.000,0.200,23094.000,0.300,2351.000,0.500,238.000,1.000,37.000,5.000,0
"03/09/08","11:13:21",196699.000,"cc",28286.908,6.00,6,0.100,162588.000,0.200,30968.000,0.300,2883.000,0.500,229.000,1.000,31.000,5.000,0
"03/09/08","11:13:27",426442.000,"cc",28327.525,6.00,6,0.100,322639.000,0.200,93784.000,0.300,9627.000,0.500,367.000,1.000,25.000,5.000,0
"03/09/08","11:13:33",442212.000,"cc",28363.121,6.00,6,0.100,288660.000,0.200,137090.000,0.300,16018.000,0.500,431.000,1.000,13.000,5.000,0
"03/09/08","11:13:39",436431.000,"cc",28315.926,6.00,6,0.100,271995.000,0.200,145727.000,0.300,18202.000,0.500,491.000,1.000,16.000,5.000,0
"03/09/08","11:13:45",382528.000,"cc",28330.213,6.00,6,0.100,271842.000,0.200,100359.000,0.300,9950.000,0.500,358.000,1.000,19.000,5.000,0
"03/09/08","11:13:51",471774.000,"cc",28323.375,6.00,6,0.100,347443.000,0.200,111722.000,0.300,12110.000,0.500,465.000,1.000,34.000,5.000,0
"03/09/08","11:13:57",412953.000,"cc",28295.981,6.00,6,0.100,278925.000,0.200,119416.000,0.300,14069.000,0.500,516.000,1.000,27.000,5.000,0
"03/09/08","11:14:03",431699.000,"cc",28346.670,6.00,6,0.100,274936.000,0.200,137951.000,0.300,18063.000,0.500,697.000,1.000,52.000,5.000,0
"03/09/08","11:14:09",392129.000,"cc",28322.920,6.00,6,0.100,306115.000,0.200,77741.000,0.300,7781.000,0.500,458.000,1.000,34.000,5.000,0
"03/09/08","11:14:15",329868.000,"cc",28298.227,6.00,6,0.100,266644.000,0.200,57685.000,0.300,5103.000,0.500,396.000,1.000,40.000,5.000,0
"03/09/08","11:14:21",361964.000,"cc",28303.660,6.00,6,0.100,289716.000,0.200,65574.000,0.300,6042.000,0.500,580.000,1.000,52.000,5.000,0
"03/09/08","11:14:27",366903.000,"cc",28321.568,6.00,6,0.100,293493.000,0.200,66351.000,0.300,6333.000,0.500,651.000,1.000,75.000,5.000,0
"03/09/08","11:14:33",382645.000,"cc",28336.641,6.00,6,0.100,279688.000,0.200,93771.000,0.300,8489.000,0.500,642.000,1.000,55.000,5.000,0
"03/09/08","11:14:39",282174.000,"cc",28369.457,6.00,6,0.100,233093.000,0.200,44886.000,0.300,3837.000,0.500,336.000,1.000,22.000,5.000,0
"03/09/08","11:14:45",317166.000,"cc",28364.537,6.00,6,0.100,260232.000,0.200,52103.000,0.300,4405.000,0.500,394.000,1.000,32.000,5.000,0
"03/09/08","11:14:51",338165.000,"cc",28282.621,6.00,6,0.100,275001.000,0.200,57088.000,0.300,5368.000,0.500,647.000,1.000,61.000,5.000,0
"03/09/08","11:14:57",394102.000,"cc",28245.309,6.00,6,0.100,314839.000,0.200,72368.000,0.300,6316.000,0.500,531.000,1.000,48.000,5.000,0
"03/09/08","11:15:03",327966.000,"cc",28291.406,6.00,6,0.100,270276.000,0.200,52725.000,0.300,4520.000,0.500,410.000,1.000,35.000,5.000,0
"03/09/08","11:15:09",327260.000,"cc",28322.674,6.00,6,0.100,269597.000,0.200,52595.000,0.300,4565.000,0.500,463.000,1.000,40.000,5.000,0
"03/09/08","11:15:15",334817.000,"cc",28363.740,6.00,6,0.100,274815.000,0.200,54757.000,0.300,4701.000,0.500,498.000,1.000,46.000,5.000,0
"03/09/08","11:15:21",347455.000,"cc",28326.141,6.00,6,0.100,263033.000,0.200,76357.000,0.300,7188.000,0.500,794.000,1.000,83.000,5.000,0
"03/09/08","11:15:27",371355.000,"cc",28321.186,6.00,6,0.100,300776.000,0.200,64308.000,0.300,5720.000,0.500,502.000,1.000,49.000,5.000,0
"03/09/08","11:15:33",380589.000,"cc",28350.592,6.00,6,0.100,308556.000,0.200,65630.000,0.300,5870.000,0.500,491.000,1.000,42.000,5.000,0
"03/09/08","11:15:39",451184.000,"cc",28342.725,6.00,6,0.100,350373.000,0.200,91800.000,0.300,8264.000,0.500,685.000,1.000,62.000,5.000,0
"03/09/08","11:15:45",372537.000,"cc",28278.236,6.00,6,0.100,303700.000,0.200,63098.000,0.300,5327.000,0.500,399.000,1.000,13.000,5.000,0
"03/09/08","11:15:51",300190.000,"cc",28338.227,6.00,6,0.100,234083.000,0.200,60740.000,0.300,4955.000,0.500,377.000,1.000,35.000,5.000,0
"03/09/08","11:15:57",299399.000,"cc",28277.850,6.00,6,0.100,250607.000,0.200,44732.000,0.300,3667.000,0.500,363.000,1.000,30.000,5.000,0
"03/09/08","11:16:03",384431.000,"cc",28268.125,6.00,6,0.100,314062.000,0.200,64391.000,0.300,5423.000,0.500,502.000,1.000,53.000,5.000,0
"03/09/08","11:16:09",318281.000,"cc",28374.459,6.00,6,0.100,263596.000,0.200,49795.000,0.300,4428.000,0.500,428.000,1.000,34.000,5.000,0
"03/09/08","11:16:15",319421.000,"cc",28274.701,6.00,6,0.100,265780.000,0.200,49147.000,0.300,4078.000,0.500,386.000,1.000,30.000,5.000,0
"03/09/08","11:16:21",320162.000,"cc",28297.145,6.00,6,0.100,265851.000,0.200,49715.000,0.300,4247.000,0.500,321.000,1.000,28.000,5.000,0
"03/09/08","11:16:27",307081.000,"cc",28288.320,6.00,6,0.100,236821.000,0.200,64589.000,0.300,5235.000,0.500,405.000,1.000,31.000,5.000,0
"03/09/08","11:16:33",372911.000,"cc",28365.885,6.00,6,0.100,305104.000,0.200,62255.000,0.300,5121.000,0.500,399.000,1.000,32.000,5.000,0
"03/09/08","11:16:39",380886.000,"cc",28361.039,6.00,6,0.100,310799.000,0.200,64480.000,0.300,5208.000,0.500,365.000,1.000,34.000,5.000,0
"03/09/08","11:16:45",320884.000,"cc",28310.037,6.00,6,0.100,247901.000,0.200,67290.000,0.300,5261.000,0.500,389.000,1.000,43.000,5.000,0
"03/09/08","11:16:51",443782.000,"cc",28292.916,6.00,6,0.100,320565.000,0.200,111445.000,0.300,11230.000,0.500,503.000,1.000,39.000,5.000,0
"03/09/08","11:16:57",453227.000,"cc",28251.840,6.00,6,0.100,352519.000,0.200,92558.000,0.300,7698.000,0.500,417.000,1.000,35.000,5.000,0
"03/09/08","11:17:03",484662.000,"cc",28312.342,6.00,6,0.100,346501.000,0.200,125048.000,0.300,12452.000,0.500,616.000,1.000,45.000,5.000,0
"03/09/08","11:17:09",372969.000,"cc",28323.154,6.00,6,0.100,300470.000,0.200,66331.000,0.300,5609.000,0.500,508.000,1.000,51.000,5.000,0
"03/09/08","11:17:15",343429.000,"cc",28311.539,6.00,6,0.100,262562.000,0.200,74019.000,0.300,6214.000,0.500,582.000,1.000,52.000,5.000,0